AirNav   Bose ProFlight Series 2 Headset
 
 823 users online  

39R Flyin' B Airport
Houston, Texas, USA

GOING TO HOUSTON?


FAA INFORMATION EFFECTIVE 02 JANUARY 2020

Location

FAA Identifier: 39R
Lat/Long: 29-32-15.4000N 095-25-25.1000W
29-32.256667N 095-25.418333W
29.5376111,-95.4236389
(estimated)
Elevation: 73 ft. / 22 m (estimated)
Variation: 06E (1985)
From city: 15 miles S of HOUSTON, TX
Time zone: UTC -6 (UTC -5 during Daylight Saving Time)
Zip code: 77583

Airport Operations

Airport use: Open to the public
Control tower: no
ARTCC: HOUSTON CENTER
FSS: MONTGOMERY COUNTY FLIGHT SERVICE STATION
NOTAMs facility: CXO (NOTAM-D service available)
Attendance: UNATNDD
Wind indicator: yes
Segmented circle: no

Airport Communications

CTAF: 122.9
WX AWOS-3 at AXH (3 nm SW): 123.625 (281-431-6572)
WX ASOS at LVJ (10 nm E): 118.525 (281-992-1853)
WX ASOS at HOU (10 nm NE): PHONE 713-847-1462
WX ASOS at SGR (13 nm NW): 118.125 (281-242-7605)

Nearby radio navigation aids

VOR radial/distance  VOR name  Freq  Var
HUBr222/10.4HOBBY VOR/DME117.1005E
IAHr184/25.5HUMBLE VORTAC116.6005E
VUHr293/33.2SCHOLES VOR/DME113.0006E
MHFr262/35.3TRINITY VOR/DME113.6007E

 
NDB name  Hdg/Dist  Freq  Var  ID
GALVESTON281/37.020608EGLS --. .-.. ...

Airport Services

Runway Information

Runway 17/35

Dimensions: 2100 x 75 ft. / 640 x 23 m
Surface: turf, in fair condition
RY SFC HAS ROUGH AREAS & UNEVEN WITH TIRE RUTS.
RUNWAY 17  RUNWAY 35
Latitude: 29-32.430290N29-32.083907N
Longitude: 095-25.424195W095-25.411467W
Elevation: 68.0 ft.73.0 ft.
Traffic pattern: leftleft
Runway heading: 172 magnetic, 178 true352 magnetic, 358 true
Obstructions: 30 ft. pline, 20 ft. from runway5 ft. hill, 90 ft. right of centerline

Airport Ownership and Management from official FAA records

Ownership: Privately-owned
Owner: SMITH PARK 21
4610 CURRY RD
MANVEL, TX 77578
Phone 713-443-1850
ARPT ADDRESS 1422 CO RD 59, ROSHARON, TX.
Manager: DAVID PARKER
4610 CURRY RD
HOUSTON, TX 77578
Phone 713-443-1850

Additional Remarks

BAYOU AT SOUTH END OF RWY.
GND DROPS OFF SHARPLY AT END OF RY 17 20 FT FM THLD.
FOR CD CTC HOUSTON APCH AT 281-443-5844 TO CNL IFR CALL 281-443-5888.

Instrument Procedures

There are no published instrument procedures at 39R.

Some nearby airports with instrument procedures:

KAXH - Houston Southwest Airport (3 nm SW)
KLVJ - Pearland Regional Airport (10 nm E)
KHOU - William P Hobby Airport (10 nm NE)
KSGR - Sugar Land Regional Airport (13 nm NW)
KEFD - Ellington Airport (14 nm E)
 
Loc | Ops | Rwys | IFR | FBO | Links
Com | Nav | Svcs | Stats | Notes
Area around 39R (Flyin' B Airport)
 
Road maps at: MapQuest Bing Google
 
Aerial photo
No photo
 
Sectional chart

 
Airport distance calculator
Flying to Flyin' B Airport? Find the distance to fly.

From to 39R

Sunrise and sunset
Times for 20-Jan-2020
 Local
(UTC-6)
 Zulu
(UTC)
Morning civil twilight06:5212:52
Sunrise07:1713:17
Sunset17:4823:48
Evening civil twilight18:1400:14

Current date and time
Zulu (UTC)  20-Jan-2020 06:44:45
Local (UTC-6)  20-Jan-2020 00:44:45
 
METAR
KAXH 
3nm SW 
200635Z AUTO 36004KT 10SM CLR 06/00 A3052 RMK AO2 T00610000
KLVJ 
9nm E 
200553Z AUTO 35004KT 10SM CLR 07/00 A3051 RMK AO2 SLP331 T00670000 10133 20067 401670067 50010
KHOU 
9nm NE 
200553Z 36006KT 10SM CLR 08/M02 A3050 RMK AO2 SLP333 T00831017 10133 20078 401610078 50012
KSGR 
13nm W 
200553Z AUTO 36005KT 10SM CLR 07/00 A3051 RMK AO2 SLP332 T00720000 10133 20061 401720061 50012
KEFD 
14nm E 
200550Z 01006KT 10SM SKC 08/M01 A3050
TAF
KHOU 
9nm NE 
200536Z 2006/2106 02006KT P6SM SCT250
KSGR 
13nm W 
200536Z 2006/2106 02006KT P6SM SCT250
KEFD 
14nm E 
200400Z 2004/2110 03009KT 9999 SKC 510012 QNH3050INS BECMG 2016/2017 02012KT 9999 SKC QNH3058INS BECMG 2022/2023 01006KT 9999 SKC QNH3051INS TX13/1920Z TN05/2013Z
NOTAMs
Click for the latest NOTAMs
NOTAMs are issued by the DoD/FAA and will open in a separate window not controlled by AirNav.

 

 
 

Would you like to see your business listed on this page?

 If your business provides an interesting product or service to pilots, flight crews, aircraft, or users of the Flyin' B Airport, you should consider listing it here.  To start the listing process, click on the button below
 
Add a business
 

Other Pages about Flyin' B Airport

Update a link
 
Copyright © AirNav, LLC. All rights reserved. Privacy Policy  Contact